DW2849 Weather Reports


Display with metric or nautical units.
time (UTC)temp
F
wind
direction
speed
MPH
gust
MPH
rain 1hr
in
rain 24hr
in
rain mn
in
humidity
%
barometer
mb
20260831064013 54 45 2.0 3.0 0.00 0.00 0.00 77 1010.9
20260831062913 55 45 2.0 3.0 0.00 0.00 0.00 77 1011.0
20260831061813 56 45 2.0 3.0 0.00 0.00 0.00 76 1010.9
20260831060522 58 45 2.0 3.0 0.00 0.00 0.00 72 1011.0
20260831055422 59 45 2.0 3.0 0.00 0.00 0.00 71 1010.9
20260831054130 58 22 3.0 3.0 0.00 0.00 0.00 71 1010.9
20260831053030 56 6 3.0 3.0 0.00 0.00 0.00 74 1010.9
20260831051930 56 22 2.0 2.0 0.00 0.00 0.00 74 1010.9
20260831050831 57 22 2.0 2.0 0.00 0.00 0.00 74 1011.0
20260831045731 57 0 0.0 0.0 0.00 0.00 0.00 74 1011.0
20260831044631 58 112 0.0 0.0 0.00 0.00 0.00 73 1011.0
20260831043531 59 112 0.0 0.0 0.00 0.00 0.00 72 1011.0
20260831042431 61 202 0.0 1.0 0.00 0.00 0.00 70 1010.9
20260831041330 64 245 1.0 2.0 0.00 0.00 0.00 60 1010.7
20260831040230 63 270 2.0 3.0 0.00 0.00 0.00 61 1010.6
20260831034939 62 259 1.0 2.0 0.00 0.00 0.00 69 1010.7
20260831033839 62 222 1.0 3.0 0.00 0.00 0.00 64 1010.7
20260831032739 62 264 1.0 2.0 0.00 0.00 0.00 68 1010.7
20260831031448 64 194 1.0 3.0 0.00 0.00 0.00 67 1010.7
20260831030348 65 257 1.0 2.0 0.00 0.00 0.00 60 1010.7
20260831025248 63 270 1.0 3.0 0.00 0.00 0.00 65 1010.6
20260831024148 63 270 1.0 2.0 0.00 0.00 0.00 68 1010.7
20260831023048 64 253 0.0 2.0 0.00 0.00 0.00 68 1010.8
20260831021948 64 217 1.0 2.0 0.00 0.00 0.00 68 1010.9
20260831020848 66 231 1.0 2.0 0.00 0.00 0.00 66 1010.9
20260831015556 66 260 2.0 4.0 0.00 0.00 0.00 65 1011.0
20260831014456 66 222 2.0 6.0 0.00 0.00 0.00 66 1011.1
20260831013205 68 200 2.0 5.0 0.00 0.00 0.00 64 1011.1
20260831012105 69 240 2.0 5.0 0.00 0.00 0.00 62 1011.3
20260831011005 70 262 3.0 6.0 0.00 0.00 0.00 60 1011.3